Terminal Aerodrome Forecast
Issued by NWS

Current Version | Previous Version | Graphics & Text | Print | Product List | Glossary On
Versions: 1 2 3 4 5 6 7 8 9 10 11 12 13 14 15 16 17 18 19 20
000
FTUS41 KPBZ 171600 AAA
TAFMGW
TAF AMD
KMGW 171621Z 1716/1812 26009KT P6SM OVC020
      TEMPO 1716/1717 1 1/2SM -SHSN OVC013
     FM171800 26012G20KT P6SM BKN025
     FM172100 27014G22KT P6SM BKN035=

USA.gov is the U.S. government's official web portal to all federal, state and local government web resources and services.